Starlink 11322

operational
NORAD ID: 61542 Int'l Des: 2024-184 Owner: SPXS Country: US Constellation: starlink
LEOCIRCULAR

About Starlink 11322

Description loading...

Live Position

Loading 3D Globe...

Upcoming Passes

Altitude History

Altitude vs Time

uPlot chart will show altitude changes over time

Two-Line Element Set

1 61542U 24184L 25353.21040672 .00001023 00000-0 13305-4 0 9999
2 61542 53.1601 273.2516 0001502 83.6849 276.4340 15.69703874 68839
Epoch: Dec 19, 2025 • Age: 21 hours

Current Status

Altitude 377.2 km
Velocity 7.68 km/s
Sub-Earth Point -48.18°S, 26.88°E
Launch Date Oct 15, 2024
Age 1.1 years
Type internet

Technical Details

Classification Payload
Mass 960.00 kg
Dry Mass 910.00 kg
Total Mass 960.00 kg
Length 0.30 m
Diameter 4.10 m
Span 29.00 m
Shape Box + pan
Manufacturer SPXS
Bus Type Starlink V2MD
Phase Status In Orbit
Owner/State SPXS/US

Large Constellations

Loading constellations...